Location: Casa Rossa
(45.2389°N, 12.2056°E)
Time: 04:03:02
(UTC+00:00)

ATLAS 5 CENTAUR R/B - Pass Details

Date: 14 July 2020
Orbit: 534 x 1124 km, 63.4° (Epoch: 06 August)

Event Time Altitude Azimuth Distance (km) Brightness Sun altitude
Rises 01:35:13 0° 323° (NW) 3,259 5.5 -16.1°
Reaches altitude 10° 01:37:30 10° 327° (NNW) 2,414 4.9 -15.9°
Maximum altitude 01:43:08 65° 49° (NE) 1,003 2.8 -15.3°
Drops below altitude 10° 01:49:41 10° 131° (SE) 2,800 4.9 -14.7°
Sets 01:52:30 0° 134° (SE) 3,817 5.5 -14.4°
